N2UGS-WX Weather Reports


Display with metric or nautical units.
time (UTC)temp
F
wind
direction
speed
MPH
gust
MPH
rain 1hr
in
rain 24hr
in
rain mn
in
humidity
%
barometer
mb
20260503010902 41 333 3.0 9.0 0.00 0.00 0.00 70 1015.9
20260503005403 41 265 1.0 4.0 0.00 0.00 0.00 69 1015.9
20260503004002 41 313 1.0 6.0 0.00 0.00 0.00 68 1015.6
20260503002401 41 278 5.0 6.0 0.00 0.00 0.00 67 1015.6
20260503001003 42 231 4.0 4.0 0.00 0.00 0.00 67 1015.6
20260502235402 42 283 2.0 5.0 0.00 0.00 0.00 66 1015.6
20260502233903 42 207 3.0 5.0 0.00 0.00 0.00 65 1015.2
20260502232402 42 257 7.0 7.0 0.00 0.00 0.00 63 1015.2
20260502231002 43 331 2.0 6.0 0.00 0.00 0.00 62 1015.2
20260502223902 43 303 3.0 4.0 0.00 0.00 0.00 61 1015.2
20260502221001 44 242 3.0 6.0 0.00 0.00 0.00 62 1015.2
20260502215402 44 306 3.0 6.0 0.00 0.00 0.00 62 1015.2
20260502213902 44 312 7.0 7.0 0.00 0.00 0.00 61 1015.2
20260502212501 44 227 7.0 10.0 0.00 0.00 0.00 62 1015.2
20260502211002 44 248 3.0 7.0 0.00 0.00 0.00 62 1015.2
20260502205502 44 213 6.0 10.0 0.00 0.00 0.00 63 1015.2
20260502204002 43 278 4.0 8.0 0.00 0.00 0.00 65 1015.2
20260502202402 42 177 4.0 8.0 0.00 0.00 0.00 67 1015.6
20260502200902 42 239 9.0 11.0 0.00 0.00 0.00 66 1015.6
20260502195402 42 275 3.0 10.0 0.00 0.00 0.00 63 1015.6
20260502193902 43 359 3.0 13.0 0.00 0.00 0.00 63 1015.6
20260502192402 42 243 3.0 11.0 0.00 0.00 0.00 64 1015.9
20260502191003 43 233 7.0 7.0 0.00 0.00 0.00 62 1015.9
20260502185502 42 259 7.0 10.0 0.00 0.00 0.00 63 1015.6
20260502183902 43 228 7.0 8.0 0.00 0.00 0.00 63 1015.6
20260502182502 43 262 7.0 11.0 0.00 0.00 0.00 61 1015.6
20260502180902 45 221 6.0 12.0 0.00 0.00 0.00 57 1015.6
20260502164002 46 323 3.0 9.0 0.00 0.00 0.00 53 1015.6
20260502162502 45 290 5.0 10.0 0.00 0.00 0.00 53 1015.6
20260502161402 45 279 6.0 9.0 0.00 0.00 0.00 51 1015.6
20260502151502 47 308 4.0 10.0 0.00 0.00 0.00 46 1015.6
20260502130504 41 312 4.0 9.0 0.00 0.00 0.00 62 1016.3
20260502122902 39 345 4.0 6.0 0.00 0.00 0.00 73 1016.3
20260502121502 38 307 3.0 7.0 0.00 0.00 0.00 75 1016.3
20260502114502 36 316 4.0 4.0 0.00 0.00 0.00 83 1015.9
20260502113002 35 220 4.0 4.0 0.00 0.00 0.00 88 1016.3
20260502111502 34 211 2.0 3.0 0.00 0.00 0.00 92 1015.9
20260502110002 32 263 0.0 2.0 0.00 0.00 0.00 93 1015.9
20260502104502 31 229 0.0 1.0 0.00 0.00 0.00 92 1015.6
20260502103002 31 291 0.0 0.0 0.00 0.00 0.00 91 1015.6
20260502101502 31 292 0.0 0.0 0.00 0.00 0.00 91 1015.6
20260502091503 31 266 1.0 3.0 0.00 0.00 0.00 89 1015.2
20260502071402 34 291 1.0 4.0 0.00 0.00 0.00 84 1014.9
20260502070002 34 263 2.0 5.0 0.00 0.00 0.00 84 1014.9
20260502064902 34 305 1.0 6.0 0.00 0.00 0.00 84 1014.9
20260502063502 34 297 1.0 2.0 0.00 0.00 0.00 84 1015.2
20260502062402 34 272 2.0 3.0 0.00 0.00 0.00 83 1014.9
20260502061402 34 311 0.0 1.0 0.00 0.00 0.00 83 1014.9
20260502055902 35 240 0.0 2.0 0.00 0.00 0.00 81 1015.2
20260502054501 35 306 1.0 2.0 0.00 0.00 0.00 80 1015.2
20260502053003 36 354 3.0 3.0 0.00 0.00 0.00 78 1015.2
20260502051502 37 248 1.0 3.0 0.00 0.00 0.00 76 1014.9
20260502050002 37 248 3.0 6.0 0.00 0.00 0.00 75 1014.9
20260502045001 38 282 1.0 5.0 0.00 0.00 0.00 73 1014.9
20260502043502 38 311 1.0 5.0 0.00 0.00 0.00 72 1014.6
20260502042501 39 318 5.0 5.0 0.00 0.00 0.00 72 1014.6
20260502040002 40 340 1.0 2.0 0.00 0.00 0.00 79 1014.2
20260502035501 40 318 0.0 2.0 0.00 0.00 0.06 78 1014.2
20260502034003 41 247 2.0 3.0 0.00 0.00 0.06 78 1014.2
20260502031002 42 329 4.0 9.0 0.00 0.00 0.06 77 1014.2
20260502025502 41 311 4.0 5.0 0.00 0.00 0.06 81 1014.2
20260502024003 41 283 4.0 6.0 0.00 0.00 0.06 81 1014.2
20260502022402 41 236 3.0 6.0 0.00 0.00 0.06 80 1014.2
20260502021002 41 264 2.0 4.0 0.00 0.00 0.06 80 1014.2
20260502015502 42 235 5.0 7.0 0.00 0.00 0.06 79 1014.2
20260502014402 42 243 4.0 5.0 0.00 0.00 0.06 79 1013.9
20260502013003 42 278 4.0 7.0 0.00 0.00 0.06 79 1013.9
20260502011502 42 238 6.0 6.0 0.00 0.00 0.06 81 1013.9